This is the latest recevied weather packets stored in our database for station/object NY3Q. If no packets are shown the sender has not sent any weather packets the latest 10 day(s).
| Time | Temp. | Humidity | Pressure | Rain* | Wind** | Luminosity | Snow |
|---|---|---|---|---|---|---|---|
| 1777340191 | 18.89° C | 85% | 1021.4 hPa | 0 mm | - | 0 W/m² | - |
| 1777339888 | 18.89° C | 85% | 1021.2 hPa | 0 mm | - | 0 W/m² | - |
| 1777339283 | 18.89° C | 85% | 1021.2 hPa | 0 mm | - | 0 W/m² | - |
| 1777338981 | 18.89° C | 85% | 1021.1 hPa | 0 mm | - | 0 W/m² | - |
| 1777338678 | 18.89° C | 85% | 1020.9 hPa | 0 mm | - | 0 W/m² | - |
| 1777338376 | 18.89° C | 85% | 1021 hPa | 0 mm | - | 0 W/m² | - |
| 1777338072 | 18.89° C | 85% | 1021.1 hPa | 0 mm | - | 0 W/m² | - |
| 1777337466 | 18.89° C | 84% | 1020.9 hPa | 0 mm | - | 0 W/m² | - |
| 1777337162 | 18.89° C | 84% | 1021.1 hPa | 0 mm | - | 0 W/m² | - |
| 1777336559 | 18.89° C | 84% | 1020.8 hPa | 0 mm | - | 0 W/m² | - |
| 1777335954 | 18.89° C | 84% | 1020.9 hPa | 0 mm | - | 0 W/m² | - |
| 1777335650 | 18.89° C | 84% | 1020.7 hPa | 0 mm | - | 0 W/m² | - |
| 1777335347 | 18.89° C | 84% | 1020.8 hPa | 0 mm | - | 0 W/m² | - |
| 1777334742 | 18.89° C | 83% | 1020.6 hPa | 0 mm | - | 1 W/m² | - |
| 1777332626 | 18.89° C | 83% | 1020.5 hPa | 0 mm | - | 6 W/m² | - |
| 1777329296 | 18.89° C | 81% | 1020.4 hPa | 0 mm | - | 31 W/m² | - |
| 1777313858 | 20.56° C | 76% | 1020.5 hPa | 0 mm | - | 286 W/m² | - |
| 1777312948 | 20.56° C | 77% | 1020.5 hPa | 0 mm | - | 286 W/m² | - |
| 1777312645 | 20.56° C | 76% | 1020.3 hPa | 0 mm | - | 275 W/m² | - |
| 1777311433 | 20.56° C | 77% | 1020.3 hPa | 0 mm | - | 248 W/m² | - |
| 1777311130 | 20.56° C | 77% | 1020.6 hPa | 0 mm | - | 271 W/m² | - |
| 1777310828 | 20.56° C | 78% | 1020.5 hPa | 0 mm | - | 263 W/m² | - |
| 1777310526 | 20° C | 78% | 1020.3 hPa | 0 mm | - | 226 W/m² | - |
| 1777310222 | 20.56° C | 76% | 1020.4 hPa | 0 mm | - | 208 W/m² | - |
| 1777309919 | 20.56° C | 76% | 1020.5 hPa | 0 mm | - | 163 W/m² | - |
* Rain latest hour (hover to see other rain measurements)
** Current wind speed in m/s (hover to see current wind gust speed)